Theta_e
294 294 294 295 295 295 296 296 296 297 297 298 300 301 301 302 301 302 300 302 306 308 313 313 314 313 313 316 316 318 320 319 319 318 316 316 317 317
294 294 294 294 295 295 296 296 295 295 297 297 299 300 300 301 301 301 301 304 307 307 311 313 313 314 314 312 314 318 317 318 318 318 318 317 318 317
294 294 294 294 294 295 295 295 295 295 296 297 299 299 300 300 300 300 301 303 306 307 311 313 313 313 315 313 313 316 317 318 318 317 317 317 317 317
294 294 294 294 294 294 295 295 295 295 295 296 297 298 299 300 300 300 300 303 304 305 306 313 313 313 313 314 312 313 316 318 317 317 316 316 317 317
294 294 294 294 294 294 294 294 295 295 295 295 296 297 298 300 300 300 303 303 303 305 306 309 313 313 313 313 313 313 314 319 318 317 316 316 316 316
295 295 295 295 295 295 295 296 295 295 296 295 297 298 298 298 299 301 301 302 302 304 306 309 313 313 313 313 313 312 311 316 318 317 317 316 315 317
297 296 296 296 296 296 296 296 296 297 296 296 295 297 297 298 299 301 302 302 301 306 306 309 310 314 313 312 312 312 311 316 318 315 314 317 316 316
299 298 298 297 297 298 299 299 300 298 299 297 297 297 297 298 299 301 302 302 303 305 306 308 309 311 313 313 312 311 309 311 313 314 310 312 314 315
300 300 298 297 297 297 297 297 298 299 299 300 298 298 298 298 300 301 303 303 304 305 306 309 311 307 313 312 311 311 310 308 309 311 310 307 309 309
299 300 299 298 297 297 297 296 295 296 296 297 298 298 298 299 299 301 302 303 306 306 307 309 312 310 308 309 312 311 311 310 308 310 309 308 308 305
300 299 299 297 297 297 296 296 296 295 296 297 298 297 298 300 300 300 303 302 305 305 306 307 311 310 309 311 311 311 311 310 308 306 307 307 305 304
299 300 299 298 297 296 297 296 296 296 297 298 299 299 299 300 301 302 302 300 305 305 306 307 309 309 308 310 311 311 310 310 308 306 305 304 304 304
301 300 299 298 297 297 298 297 296 297 297 299 298 299 300 301 303 303 302 303 305 305 305 305 306 307 306 307 308 310 309 308 308 306 304 304 304 303
303 300 298 296 295 297 297 298 299 298 299 298 299 299 300 301 302 303 303 304 304 304 304 305 305 307 305 307 308 307 308 308 308 306 304 305 305 304
300 299 296 295 296 297 298 299 299 300 299 299 299 299 300 301 301 302 303 304 304 302 304 306 306 308 307 307 307 307 307 306 307 306 306 305 304 303
298 297 296 297 297 297 298 298 299 299 300 299 299 299 299 302 303 303 304 304 304 303 303 305 306 307 307 307 306 307 308 306 305 304 303 303 304 304
298 298 298 297 297 297 298 298 298 300 299 300 300 299 299 302 301 301 300 301 302 302 302 304 305 305 306 307 306 306 307 307 304 304 304 304 303 303
296 297 297 297 297 297 298 297 298 299 300 300 300 300 301 301 300 299 298 298 299 302 303 303 305 305 305 306 306 306 306 306 305 305 304 304 303 303
295 295 296 296 296 297 297 297 297 298 300 299 299 299 299 299 299 298 298 299 298 300 303 304 305 305 305 305 305 306 305 306 306 307 304 304 304 304
294 295 295 295 296 296 296 296 296 297 299 300 300 299 299 299 299 299 298 301 299 300 301 303 304 304 305 306 306 305 306 304 305 305 305 304 304 304
292 293 294 295 296 296 296 296 296 296 296 297 297 297 299 299 299 299 300 302 300 301 303 304 304 304 304 305 305 305 305 305 305 304 303 303 301 300
291 292 293 293 294 295 296 297 297 297 297 297 297 297 298 300 300 300 300 301 304 303 304 303 303 304 305 305 304 304 305 305 304 304 304 304 304 304
291 291 292 293 294 294 296 297 297 297 297 298 297 298 297 299 300 301 300 301 302 303 303 304 303 304 305 304 304 304 305 305 305 304 305 305 305 305
Wind_Speed
34 33 32 32 32 31 30 32 32 32 34 33 35 31 30 31 34 28 26 27 27 31 30 35 41 36 34 37 31 29 27 25 25 24 23 23 23 22
31 31 31 31 29 27 29 31 32 34 36 34 32 31 29 30 29 27 25 23 25 27 30 31 40 39 36 37 36 29 28 27 26 25 24 23 23 21
31 33 33 32 32 31 32 32 32 31 38 40 30 29 29 32 38 36 28 26 25 24 29 28 39 37 35 37 36 34 28 27 26 26 25 25 23 24
36 37 36 33 33 33 33 32 31 30 34 45 35 35 32 29 30 31 32 29 29 28 25 27 36 40 34 39 39 36 30 30 28 26 27 25 26 26
36 36 35 32 33 31 30 30 31 30 33 37 38 33 34 29 24 31 29 30 29 29 25 31 34 37 36 40 42 38 38 34 30 28 27 25 26 25
37 35 34 33 32 30 33 34 33 31 31 34 35 33 31 33 30 37 35 32 30 29 29 31 30 37 33 34 42 42 42 34 33 29 27 26 26 27
43 41 40 38 33 33 34 33 36 30 29 32 36 33 37 33 34 36 31 32 30 29 32 30 34 34 35 36 36 40 39 38 31 29 27 27 27 27
44 43 42 39 35 33 33 34 33 36 37 35 35 33 36 32 31 33 30 33 32 33 32 32 39 35 38 39 40 32 36 37 33 31 32 27 27 28
40 43 37 38 34 33 36 29 29 30 30 32 36 36 34 32 29 25 30 31 29 31 29 28 34 42 32 41 39 41 29 34 35 32 29 28 29 31
36 36 35 33 30 29 30 30 28 27 26 27 29 25 28 30 26 29 28 23 22 22 28 27 27 34 32 32 43 46 34 32 34 34 29 30 28 26
43 33 31 29 30 26 26 28 25 25 20 21 23 29 27 23 28 26 27 28 22 22 23 25 26 27 31 31 37 41 41 32 32 37 33 32 28 25
38 34 23 23 21 20 22 24 25 26 21 21 21 21 23 24 27 27 25 23 25 24 27 21 29 27 14 21 37 43 40 30 32 36 35 31 29 28
38 29 20 17 17 18 19 21 22 19 21 20 16 16 19 22 24 23 21 21 29 21 25 27 22 29 15 19 24 41 39 26 30 35 33 30 29 28
14 14 8 7 9 13 14 17 19 20 21 18 18 15 12 11 20 23 19 21 22 16 15 25 22 30 22 20 28 29 34 28 27 32 35 32 29 28
6 6 6 5 5 8 9 11 14 17 18 17 18 16 10 13 19 21 21 20 19 16 11 24 15 27 22 20 27 27 31 25 26 30 30 31 33 32
6 5 4 2 2 3 6 10 9 11 20 17 17 14 15 18 20 23 20 23 21 18 14 13 15 19 17 16 20 28 34 22 26 26 26 25 26 27
5 2 2 3 1 3 5 9 10 12 17 18 21 20 18 21 20 18 17 20 19 20 20 19 15 16 16 21 18 20 26 25 22 23 24 24 24 24
5 2 2 0 1 3 5 9 5 9 14 15 21 24 23 21 19 18 17 18 20 20 23 23 21 20 18 16 16 21 17 24 24 22 22 23 24 24
3 1 2 3 4 4 3 1 5 6 14 19 19 19 18 17 15 17 17 16 19 25 23 26 25 23 22 21 16 17 20 22 22 28 19 23 23 22
13 6 3 5 5 7 8 7 5 8 12 14 15 15 16 14 15 16 18 17 19 24 23 23 27 27 26 25 17 21 19 21 21 22 26 21 19 17
15 11 8 4 5 7 8 10 9 10 12 15 16 15 14 16 16 16 16 17 21 21 20 23 23 20 21 19 19 21 19 17 18 23 25 23 20 18
15 13 10 7 3 7 10 12 13 13 14 17 19 19 19 16 17 16 16 20 20 20 18 20 22 23 24 22 21 21 24 23 22 19 14 14 15 13
16 14 11 8 6 4 8 10 11 15 18 18 19 19 21 19 17 17 18 21 19 19 18 18 22 22 23 19 17 20 24 26 23 21 18 17 16 16
Wind_Direction
283 282 279 281 276 272 267 267 272 273 273 271 274 273 267 268 270 267 267 247 247 243 241 235 225 227 228 226 225 223 222 221 215 218 218 217 216 217
287 286 283 283 280 270 266 266 267 269 271 267 264 266 266 266 268 265 260 247 242 245 237 235 227 223 222 222 220 219 218 220 218 216 211 213 210 210
287 292 287 284 280 274 272 270 267 264 267 273 270 266 262 267 270 266 256 246 244 244 231 234 223 219 221 217 214 216 210 220 219 216 212 208 209 208
285 290 287 285 282 277 273 269 268 263 264 268 268 269 269 267 264 264 250 247 245 242 243 230 224 218 222 217 211 210 213 215 215 214 213 207 207 206
288 285 285 282 278 276 270 270 269 265 265 267 268 266 264 262 254 256 247 244 245 241 240 229 218 213 216 215 216 209 209 211 207 209 208 207 204 205
285 283 281 277 274 273 270 267 270 268 265 260 264 266 264 265 260 256 246 241 244 240 228 227 221 216 215 218 215 210 210 206 201 205 207 204 202 204
286 282 277 276 267 264 260 263 262 268 262 262 263 261 261 258 253 246 249 241 241 231 228 228 218 214 212 212 209 210 210 204 194 202 211 205 203 206
285 282 277 276 267 263 262 261 260 264 256 256 257 251 255 255 249 247 245 239 234 227 226 229 221 215 215 212 203 204 206 211 201 205 206 208 211 213
293 286 275 270 273 264 260 264 260 256 257 261 249 248 252 253 240 244 236 230 232 223 218 218 208 213 207 198 198 206 199 203 206 202 209 209 216 217
296 293 275 264 266 266 265 264 262 257 259 251 257 260 254 247 244 241 236 235 225 215 212 204 199 200 212 209 205 208 205 201 206 203 207 212 216 218
296 288 281 259 262 260 255 261 264 266 264 251 258 258 241 238 230 234 227 221 205 198 206 203 192 197 205 204 204 202 210 206 199 205 207 211 210 216
291 286 274 260 260 254 246 252 253 262 263 262 239 230 228 248 221 233 228 216 189 188 200 193 185 180 164 184 198 198 197 194 195 199 202 206 205 211
278 276 262 246 248 249 250 255 258 262 259 258 233 235 204 206 206 201 210 214 194 182 188 191 192 188 190 189 181 195 192 185 186 191 194 200 206 211
279 273 237 222 235 249 257 258 252 248 249 226 221 232 183 175 189 194 189 189 188 196 194 190 193 192 194 187 183 169 180 186 190 192 195 197 205 211
21 128 147 188 241 269 268 273 263 211 218 206 217 216 204 193 185 184 187 182 169 160 150 191 198 186 193 193 194 185 177 174 179 188 190 197 203 207
59 105 143 198 246 259 280 304 286 222 213 202 210 215 209 182 170 177 165 172 178 173 166 166 174 186 193 195 191 194 195 182 174 186 186 196 203 210
360 163 180 182 223 292 317 317 284 215 214 218 211 207 195 160 167 168 174 169 174 179 178 175 168 182 199 196 177 192 185 189 174 181 181 188 195 200
359 41 13 325 298 281 331 344 97 158 154 164 167 173 171 172 180 185 192 196 189 184 185 180 174 165 167 178 189 184 176 186 169 174 183 191 196 196
347 264 258 208 239 259 253 279 46 88 129 141 155 170 179 180 188 191 187 191 192 189 191 189 186 185 172 166 178 189 182 171 172 189 192 203 203 200
38 28 325 284 259 237 235 242 226 183 176 169 174 182 187 190 191 194 190 190 186 190 196 197 196 197 194 186 171 173 184 179 176 177 183 194 190 184
17 18 15 328 264 240 244 237 222 215 210 209 205 203 197 198 183 194 191 184 183 189 192 190 192 194 202 203 195 180 175 180 189 181 180 184 185 192
8 3 357 353 305 245 238 241 237 228 231 219 212 210 202 204 194 196 194 186 182 184 190 190 188 192 196 196 194 191 192 184 182 186 193 208 204 204
359 355 348 333 323 270 233 227 223 223 222 222 211 208 202 201 197 198 196 194 189 190 189 185 186 186 191 196 201 194 190 189 194 200 212 224 222 217